MIDAS 5 DEB, 273

Orbit data source: Space-Track

MIDAS 5 DEB, 273 is space debris in LEO originally from a launch on Mon, 09 Apr 1962 UTC launched from the Air Force Western Test Range (AFWTR). Debris objects in space refer to the collection of defunct objects orbiting the Earth. Examples of debris include non-operational satellites, rocket bodies, and fragments generated from explosions, collisions, or faulty payload assembly.

Loading next visibility...
Identifier
273, 1962-010C
Orbit
LEO
Country
Flag of USUS
Related business
Manufacturer
Unknown
Mission
Spacecraft
Bus & Motor
Unknown
Mass
~10 kg wet, ~10 kg dry
Launch date (UTC)
1962-04-09 (64 years ago)
Launch vehicle
Unknown
Launch site
Air Force Western Test Range (AFWTR)
Object type
Payload
Rocket body
Debris
Shape & HBR
Unknown shape, 0.4 m
Radar Cross Section
Medium (>0.1 m² and <1 m²)

Expand to show TLE details & history
Last TLE update: 8 hours ago

TLE from 8 hours ago
0 MIDAS 5 DEB
1   273U 62010C   26145.36253499  .00000025  00000-0  43046-2 0  9996
2   273  86.6503 300.3704 0326644 246.9022 109.7142  9.43831262209136
Epoch: 2026-05-25T08:42Z
TLE epoch observation values (Epoch: 2026-05-25T08:42:03.023Z)
Latitude
-0.00006°
Longitude
-73.09361°
Altitude
3,195.332 km
Speed
6.415 km/s
True Right ascension
20h 01m 28s
True Declination
0° 00' 00"
Sunlit
Object was in daylight at epoch
Visualization orbit readout
Latitude
Unknown
Longitude
Unknown
Altitude
Unknown
Speed
Unknown
Apparent Right ascension
Unknown
Apparent Declination
Unknown
Sunlit
N/A
Visualization observer readout
Local Sidereal Time
01:35:30
Azimuth
Unknown
Elevation
Unknown
Doppler factor
Unknown
Orbital elements
Apogee altitude
3,386.567 km
Perigee altitude
2,768.829 km
Semi-major axis
9,455.835 km
Eccentricity
0.03266
Inclination
86.6503°
RAAN
300.3704°
Arg. of periapsis
246.9022°
True anomaly
113.18785°
Mean anomaly
109.7142°
Eccentric anomaly
111.45603°
Mean motion
2.36044 °/min
Orbital period
152.51 mins
BSTAR
0.0043046
Loading maneuver chart data...
Computing Atmospheric mass density...
Loading historical data...
Loading historical data...
Loading historical data...
Loading historical data...
Loading historical data...
Loading historical data...
Loading historical data...

Documentation

Showing up to 5 results
|